Regional Weather Roundup
Issued by NWS

Home | Current Version | Previous Version | Graphics & Text | Print | Product List | Glossary On
Versions: 1 2 3 4 5 6 7 8 9 10 11 12 13 14 15 16 17 18 19 20 21 22 23 24 25 26 27 28 29 30 31 32 33 34 35 36 37 38 39 40 41 42 43 44 45 46 47 48 49 50
000
ASUS45 KBOU 201110
RWRCO

WEATHER ROUNDUP FOR COLORADO
NATIONAL WEATHER SERVICE PUEBLO CO
400 AM MST TUE FEB 20 2018

NOTE: "FAIR" INDICATES FEW OR NO CLOUDS BELOW 12000 FEET WITH NO
SIGNIFICANT WEATHER AND/OR OBSTRUCTIONS TO VISIBILITY.

COZ001>005-013-030-031-201200-
...NORTHWEST COLORADO...

CITY           SKY/WX    TMP DP  RH WIND       PRES   REMARKS
CRAIG          LGT SNOW   3  -3  76 NE5       29.81S WCI  -6
HAYDEN         LGT SNOW   1  -2  85 CALM      29.79R VSB 1
MEEKER         LGT SNOW   6   1  80 CALM      29.78R
RABBIT EARS PA NOT AVBL
STEAMBOAT SPGS CLOUDY    -2  -6  84 CALM      29.76R
WALDEN         FAIR      -8 -13  77 CALM      29.64R
$$

COZ006>008-011-201200-
...WEST CENTRAL VALLEYS...

CITY           SKY/WX    TMP DP  RH WIND       PRES   REMARKS
GRAND JUNCTION CLOUDY    20  19  96 W3        29.83R
MONTROSE       LGT SNOW  18  16  92 N3        29.81R FOG
EAGLE          CLOUDY    14   6  70 NW8       29.74R WCI   3
RIFLE          CLOUDY    12   9  87 S5        29.81R WCI   4
DELTA          NOT AVBL
NUCLA          CLOUDY    23  16  74 SW9       29.82R WCI  13
$$

COZ017>023-064>068-201200-
...SOUTHWEST COLORADO...

CITY           SKY/WX    TMP DP  RH WIND       PRES   REMARKS
DURANGO        CLEAR     14  13  95 SW5       29.79R WCI   6
CORTEZ         CLEAR     10   7  87 CALM      29.82R
PAGOSA SPRINGS FLURRIES  18  10  71 SW10      29.76S WCI   6
TELLURIDE      PTCLDY    12  -3  50 SW12G18   29.68S WCI  -2
WOLF CREEK PAS CLOUDY     0  -4  85 S32G53    29.56R WCI -27
$$

COZ009-010-012-014-032>034-037-058>063-201200-
...CENTRAL COLORADO...

CITY           SKY/WX    TMP DP  RH WIND       PRES   REMARKS
ASPEN          LGT SNOW  11   7  84 N3        29.66R VSB 1
BUENA VISTA    FAIR      18  -7  32 S13G22    29.62R WCI   5
COPPER MTN     LGT SNOW   5  -4  66 SW8       29.46R WCI  -8
BERTHOUD PASS    N/A     -6 -17  59 W29G43    29.40R HAZE    WCI -33
COTTONWOOD PAS PTCLDY    18  -4  38 SW5       29.55S WCI  11
GUNNISON       PTCLDY    16   4  59 W14G20    29.68R WCI   2
KREMMLING      CLOUDY    14   3  62 E3        29.69R
LEADVILLE      CLOUDY     5   0  79 E5        29.51S WCI  -4
MONARCH PASS   SNOW       1  -4  78 SW30G40   29.58R VSB 1/4 WCI -24
SALIDA         FAIR      20   4  50 W9        29.73R WCI   9
SUNLIGHT       LGT SNOW  -4  -8  84 W12G23    29.57R WCI -22
WILKERSON PASS PTCLDY   N/A N/A N/A SW14G23   29.49S
$$

COZ069>075-201200-
...SAN LUIS VALLEY/SANGRE DE CRISTO MOUNTAINS...

CITY           SKY/WX    TMP DP  RH WIND       PRES   REMARKS
ALAMOSA        PTCLDY    16  10  77 S16       29.71R WCI   1
DEL NORTE      CLOUDY    19   3  48 SW16G26   29.69R WCI   5
LA VETA PASS   CLOUDY     9   5  85 S31G45    29.66R WCI -14
SAGUACHE       CLOUDY    19  14  79 W3        29.67R
$$

COZ035-036-038>040-201200-
...NORTHERN COLORADO FRONT RANGE...

CITY           SKY/WX    TMP DP  RH WIND       PRES   REMARKS
DENVER INTL AP FLURRIES   0  -6  76 SE6       29.82S WCI -12
DMNS CITY PARK NOT AVBL
AURORA         FLURRIES  -2  -5  84 E3        29.82R
FRONT RANGE AP CLOUDY    -1  -4  83 CALM      29.83R
ERIE MUNI ARPT CLOUDY     1  -4  82 SE3       29.91R
BOULDER MUN AP CLOUDY     3   0  85 SE5       29.83R WCI  -6
CENTENNIAL     CLOUDY    -1  -4  87 NE6       29.79R WCI -13
BROOMFIELD     CLOUDY     1  -2  85 E5        29.82R WCI  -8
LOVELAND       CLEAR     -4  -9  79 SE6       29.86S WCI -16
LONGMONT       FAIR       1  -4  80 S7        29.87R WCI -12
$$

COZ041-046-047-076>085-087-088-201200-
...PIKES PEAK/PALMER DIVIDE AND SOUTHERN FOOTHILLS...

CITY           SKY/WX    TMP DP  RH WIND       PRES   REMARKS
COLO. SPRINGS  LGT SNOW  10   7  87 CALM      29.72S FOG
A. F. ACADEMY  LGT SNOW   6   0  78 N10       29.70R FOG     WCI  -9
SCHRIEVER AFB  NOT AVBL
CHEYENNE MTN   NOT AVBL
ELLICOTT         N/A    N/A N/A N/A N3          N/A
FALCON         LGT SNOW  10   8  92 MISG      29.68S
FORT CARSON    CLOUDY    10   6  85 S7        29.73R BLWGSNOWWCI  -1
LIMON          CLOUDY     0  -2  91 N14       29.79F WCI -19
MONUMENT HILL  LGT SNOW   0  -6  78 N5        29.69S WCI -10
CANON CITY     LGT SNOW  16  12  86 E6        29.77R WCI   7
WALSENBURG     FAIR      14  10  85 S12       29.67F WCI   0
TRINIDAD       CLOUDY    13  10  88 CALM      29.74S
$$

COZ042>045-048>051-090-091-201200-
...NORTHEAST COLORADO...

CITY           SKY/WX    TMP DP  RH WIND       PRES   REMARKS
GREELEY ARPT   PTCLDY    -1  -8  72 NE7       29.89F WCI -14
AKRON          MIX PCPN  -3  -6  87 NW12      29.86R WCI -21
BURLINGTON     CLOUDY     4  -1  80 N21G28    29.87R WCI -17
WRAY           MOCLDY     5  -2  72 MISG      29.94R
YUMA           NOT AVBL
STERLING       CLOUDY     3  -2  78 N8        29.94R WCI -10
HOLYOKE        FAIR       5  -4  66 NW15      29.94R WCI -13
FORT MORGAN    PTSUNNY    0  -6  74 NW9       29.90F WCI -15
$$

COZ086-089-092>099-201200-
...SOUTHEAST COLORADO...

CITY           SKY/WX    TMP DP  RH WIND       PRES   REMARKS
PUEBLO         CLOUDY     9   5  84 E3        29.82R
LA JUNTA       PTCLDY     9   5  84 NE6       29.86R WCI  -1
LAMAR          FLURRIES  13   7  77 NE8       29.89R WCI   2
SPRINGFIELD      N/A     12   9  87 N15       29.81R WCI  -4
$$




USA.gov is the U.S. government's official web portal to all federal, state and local government web resources and services.